Time,TemperatureF,DewpointF,PressureIn,WindDirection,WindDirectionDegrees,WindSpeedMPH,WindSpeedGustMPH,Humidity,HourlyPrecipIn,Conditions,Clouds,dailyrainin,SoftwareType,DateUTC
2013-11-10 00:01:00,46.4,33.3,30.27,SW,226,0.0,0.0,60,0.00,,,0.00,Wunderground v.1.15,2013-11-10 05:01:00,
2013-11-10 00:02:00,46.5,33.4,30.27,SW,226,0.0,0.0,60,0.00,,,0.00,Wunderground v.1.15,2013-11-10 05:02:00,
2013-11-10 00:04:00,46.7,33.1,30.27,SW,226,0.0,0.0,59,0.00,,,0.00,Wunderground v.1.15,2013-11-10 05:04:00,
2013-11-10 00:06:00,46.8,33.2,30.26,SW,226,0.0,0.0,59,0.00,,,0.00,Wunderground v.1.15,2013-11-10 05:06:00,
2013-11-10 00:09:00,47.0,33.8,30.26,SW,226,0.0,0.0,60,0.00,,,0.00,Wunderground v.1.15,2013-11-10 05:09:00,
2013-11-10 00:11:00,47.0,34.2,30.26,SW,226,0.0,0.0,61,0.00,,,0.00,Wunderground v.1.15,2013-11-10 05:11:00,
2013-11-10 00:16:00,47.0,33.4,30.26,SW,226,0.0,0.0,59,0.00,,,0.00,Wunderground v.1.15,2013-11-10 05:16:00,
2013-11-10 00:21:00,47.1,33.1,30.26,SW,226,0.0,0.0,58,0.00,,,0.00,Wunderground v.1.15,2013-11-10 05:21:00,
2013-11-10 00:27:00,47.3,34.5,30.26,SW,226,0.0,0.0,61,0.00,,,0.00,Wunderground v.1.15,2013-11-10 05:27:00,
2013-11-10 00:32:00,47.1,34.7,30.26,SW,226,0.0,0.0,62,0.00,,,0.00,Wunderground v.1.15,2013-11-10 05:32:00,
2013-11-10 00:38:00,47.0,34.6,30.25,SW,226,0.0,0.0,62,0.00,,,0.00,Wunderground v.1.15,2013-11-10 05:38:00,
2013-11-10 00:43:00,46.8,33.6,30.25,SW,226,0.0,0.0,60,0.00,,,0.00,Wunderground v.1.15,2013-11-10 05:43:00,
2013-11-10 00:49:00,46.8,33.6,30.25,SW,226,0.0,0.0,60,0.00,,,0.00,Wunderground v.1.15,2013-11-10 05:49:00,
2013-11-10 00:54:00,47.0,34.6,30.26,SW,226,0.0,0.0,62,0.00,,,0.00,Wunderground v.1.15,2013-11-10 05:54:00,
2013-11-10 01:01:00,47.0,33.8,30.26,SW,226,0.0,0.0,60,0.00,,,0.00,Wunderground v.1.15,2013-11-10 06:01:00,
2013-11-10 01:07:00,47.0,33.8,30.26,SW,226,0.0,0.0,60,0.00,,,0.00,Wunderground v.1.15,2013-11-10 06:07:00,
2013-11-10 01:13:00,47.3,33.7,30.26,SW,226,0.0,0.0,59,0.00,,,0.00,Wunderground v.1.15,2013-11-10 06:13:00,
2013-11-10 01:18:00,47.4,34.2,30.26,SW,226,0.0,0.0,60,0.00,,,0.00,Wunderground v.1.15,2013-11-10 06:18:00,
2013-11-10 01:24:00,47.4,34.6,30.26,SW,226,0.0,0.0,61,0.00,,,0.00,Wunderground v.1.15,2013-11-10 06:24:00,
2013-11-10 01:29:00,47.4,33.8,30.26,SW,226,0.0,0.0,59,0.00,,,0.00,Wunderground v.1.15,2013-11-10 06:29:00,
2013-11-10 01:35:00,47.6,34.8,30.26,SW,226,0.0,0.0,61,0.00,,,0.00,Wunderground v.1.15,2013-11-10 06:35:00,
2013-11-10 01:40:00,47.6,34.8,30.26,SW,226,0.0,0.0,61,0.00,,,0.00,Wunderground v.1.15,2013-11-10 06:40:00,
2013-11-10 01:46:00,47.6,34.8,30.26,SW,226,0.0,0.0,61,0.00,,,0.00,Wunderground v.1.15,2013-11-10 06:46:00,
2013-11-10 01:51:00,47.6,35.2,30.26,SW,226,0.0,0.0,62,0.00,,,0.00,Wunderground v.1.15,2013-11-10 06:51:00,
2013-11-10 01:57:00,47.4,35.4,30.26,SW,226,0.0,0.0,63,0.00,,,0.00,Wunderground v.1.15,2013-11-10 06:57:00,
2013-11-10 02:02:00,47.3,34.9,30.26,SW,226,0.0,0.0,62,0.00,,,0.00,Wunderground v.1.15,2013-11-10 07:02:00,
2013-11-10 02:08:00,47.3,34.5,30.26,SW,226,0.0,0.0,61,0.00,,,0.00,Wunderground v.1.15,2013-11-10 07:08:00,
2013-11-10 02:13:00,47.3,35.7,30.26,SW,226,0.0,0.0,64,0.00,,,0.00,Wunderground v.1.15,2013-11-10 07:13:00,
2013-11-10 02:19:00,47.3,34.9,30.26,SW,226,0.0,0.0,62,0.00,,,0.00,Wunderground v.1.15,2013-11-10 07:19:00,
2013-11-10 02:24:00,47.3,34.9,30.26,SW,226,0.0,0.0,62,0.00,,,0.00,Wunderground v.1.15,2013-11-10 07:24:00,
2013-11-10 02:30:00,47.4,34.6,30.26,SW,226,0.0,0.0,61,0.00,,,0.00,Wunderground v.1.15,2013-11-10 07:30:00,
2013-11-10 02:35:00,47.4,34.6,30.26,SW,226,0.0,0.0,61,0.00,,,0.00,Wunderground v.1.15,2013-11-10 07:35:00,
2013-11-10 02:40:00,47.6,34.8,30.26,SW,226,0.0,0.0,61,0.00,,,0.00,Wunderground v.1.15,2013-11-10 07:40:00,
2013-11-10 02:46:00,47.6,35.2,30.26,SW,226,0.0,0.0,62,0.00,,,0.00,Wunderground v.1.15,2013-11-10 07:46:00,
2013-11-10 02:52:00,47.6,35.6,30.26,SW,226,0.0,0.0,63,0.00,,,0.00,Wunderground v.1.15,2013-11-10 07:52:00,
2013-11-10 02:58:00,47.7,34.9,30.26,SW,226,0.0,0.0,61,0.00,,,0.00,Wunderground v.1.15,2013-11-10 07:58:00,
2013-11-10 03:04:00,47.7,34.9,30.26,SW,226,0.0,0.0,61,0.00,,,0.00,Wunderground v.1.15,2013-11-10 08:04:00,
2013-11-10 03:09:00,47.7,34.9,30.26,SW,226,0.0,0.0,61,0.00,,,0.00,Wunderground v.1.15,2013-11-10 08:09:00,
2013-11-10 03:14:00,47.7,34.5,30.26,SW,226,0.0,0.0,60,0.00,,,0.00,Wunderground v.1.15,2013-11-10 08:14:00,
2013-11-10 03:20:00,47.7,34.9,30.26,SW,226,0.0,0.0,61,0.00,,,0.00,Wunderground v.1.15,2013-11-10 08:20:00,
2013-11-10 03:25:00,47.7,34.9,30.26,SW,226,0.0,0.0,61,0.00,,,0.00,Wunderground v.1.15,2013-11-10 08:25:00,
2013-11-10 03:31:00,47.6,34.8,30.26,SW,226,0.0,0.0,61,0.00,,,0.00,Wunderground v.1.15,2013-11-10 08:31:00,
2013-11-10 03:36:00,47.4,35.0,30.26,SW,226,0.0,0.0,62,0.00,,,0.00,Wunderground v.1.15,2013-11-10 08:36:00,
2013-11-10 03:42:00,47.3,34.9,30.26,SW,226,0.0,0.0,62,0.00,,,0.00,Wunderground v.1.15,2013-11-10 08:42:00,
2013-11-10 03:47:00,47.1,34.7,30.26,SW,226,0.0,0.0,62,0.00,,,0.00,Wunderground v.1.15,2013-11-10 08:47:00,
2013-11-10 03:53:00,47.1,35.1,30.26,SW,226,0.0,0.0,63,0.00,,,0.00,Wunderground v.1.15,2013-11-10 08:53:00,
2013-11-10 03:58:00,47.0,35.4,30.26,SW,226,0.0,1.0,64,0.00,,,0.00,Wunderground v.1.15,2013-11-10 08:58:00,
2013-11-10 04:04:00,46.8,35.3,30.26,SW,226,0.0,0.0,64,0.00,,,0.00,Wunderground v.1.15,2013-11-10 09:04:00,
2013-11-10 04:09:00,46.5,34.6,30.26,SW,226,0.0,0.0,63,0.00,,,0.00,Wunderground v.1.15,2013-11-10 09:09:00,
2013-11-10 04:15:00,46.7,35.2,30.26,SW,226,0.0,0.0,64,0.00,,,0.00,Wunderground v.1.15,2013-11-10 09:15:00,
2013-11-10 04:20:00,46.5,35.0,30.26,SW,226,0.0,0.0,64,0.00,,,0.00,Wunderground v.1.15,2013-11-10 09:20:00,
2013-11-10 04:26:00,46.4,34.9,30.26,SW,226,0.0,0.0,64,0.00,,,0.00,Wunderground v.1.15,2013-11-10 09:26:00,
2013-11-10 04:31:00,46.2,34.7,30.26,SW,226,0.0,0.0,64,0.00,,,0.00,Wunderground v.1.15,2013-11-10 09:31:00,
2013-11-10 04:36:00,46.4,34.9,30.26,SW,226,0.0,0.0,64,0.00,,,0.00,Wunderground v.1.15,2013-11-10 09:36:00,
2013-11-10 04:42:00,46.4,34.9,30.26,SW,226,0.0,0.0,64,0.00,,,0.00,Wunderground v.1.15,2013-11-10 09:42:00,
2013-11-10 04:48:00,46.4,34.9,30.26,SW,226,0.0,0.0,64,0.00,,,0.00,Wunderground v.1.15,2013-11-10 09:48:00,
2013-11-10 04:54:00,46.4,34.9,30.28,SW,226,0.0,0.0,64,0.00,,,0.00,Wunderground v.1.15,2013-11-10 09:54:00,
2013-11-10 04:59:00,46.5,34.6,30.28,SW,226,0.0,0.0,63,0.00,,,0.00,Wunderground v.1.15,2013-11-10 09:59:00,
2013-11-10 05:05:00,46.5,35.0,30.28,SW,226,0.0,0.0,64,0.00,,,0.00,Wunderground v.1.15,2013-11-10 10:05:00,
2013-11-10 05:10:00,46.4,35.3,30.28,SW,226,0.0,0.0,65,0.00,,,0.00,Wunderground v.1.15,2013-11-10 10:10:00,
2013-11-10 05:15:00,46.1,35.0,30.28,SW,226,0.0,0.0,65,0.00,,,0.00,Wunderground v.1.15,2013-11-10 10:15:00,
2013-11-10 05:21:00,46.0,34.9,30.28,SW,226,0.0,0.0,65,0.00,,,0.00,Wunderground v.1.15,2013-11-10 10:21:00,
2013-11-10 05:26:00,45.8,34.7,30.28,SW,226,0.0,0.0,65,0.00,,,0.00,Wunderground v.1.15,2013-11-10 10:26:00,
2013-11-10 05:32:00,45.7,35.0,30.28,SW,226,0.0,0.0,66,0.00,,,0.00,Wunderground v.1.15,2013-11-10 10:32:00,
2013-11-10 05:37:00,45.4,34.7,30.28,SW,226,0.0,0.0,66,0.00,,,0.00,Wunderground v.1.15,2013-11-10 10:37:00,
2013-11-10 05:42:00,45.2,34.9,30.28,SW,226,0.0,0.0,67,0.00,,,0.00,Wunderground v.1.15,2013-11-10 10:42:00,
2013-11-10 05:47:00,45.1,34.8,30.28,SW,226,0.0,0.0,67,0.00,,,0.00,Wunderground v.1.15,2013-11-10 10:47:00,
2013-11-10 05:53:00,45.4,34.7,30.28,SW,226,0.0,0.0,66,0.00,,,0.00,Wunderground v.1.15,2013-11-10 10:53:00,
2013-11-10 05:58:00,45.5,34.8,30.28,SW,226,0.0,0.0,66,0.00,,,0.00,Wunderground v.1.15,2013-11-10 10:58:00,
2013-11-10 06:04:00,45.4,34.7,30.28,SW,226,0.0,0.0,66,0.00,,,0.00,Wunderground v.1.15,2013-11-10 11:04:00,
2013-11-10 06:09:00,45.4,35.1,30.29,SW,226,0.0,0.0,67,0.00,,,0.00,Wunderground v.1.15,2013-11-10 11:09:00,
2013-11-10 06:14:00,45.2,34.9,30.29,SW,226,0.0,0.0,67,0.00,,,0.00,Wunderground v.1.15,2013-11-10 11:14:00,
2013-11-10 06:20:00,45.1,35.2,30.29,SW,226,0.0,0.0,68,0.00,,,0.00,Wunderground v.1.15,2013-11-10 11:20:00,
2013-11-10 06:25:00,44.8,35.6,30.30,SW,226,0.0,0.0,70,0.00,,,0.00,Wunderground v.1.15,2013-11-10 11:25:00,
2013-11-10 06:31:00,44.5,35.3,30.30,SW,226,0.0,0.0,70,0.00,,,0.00,Wunderground v.1.15,2013-11-10 11:31:00,
2013-11-10 06:36:00,44.3,34.8,30.30,SW,226,0.0,0.0,69,0.00,,,0.00,Wunderground v.1.15,2013-11-10 11:36:00,
2013-11-10 06:42:00,44.5,35.0,30.30,SW,226,0.0,0.0,69,0.00,,,0.00,Wunderground v.1.15,2013-11-10 11:42:00,
2013-11-10 06:47:00,44.6,35.1,30.30,SW,226,0.0,0.0,69,0.00,,,0.00,Wunderground v.1.15,2013-11-10 11:47:00,
2013-11-10 06:53:00,44.5,35.0,30.31,SW,226,0.0,0.0,69,0.00,,,0.00,Wunderground v.1.15,2013-11-10 11:53:00,
2013-11-10 06:58:00,44.3,35.1,30.31,SW,226,0.0,0.0,70,0.00,,,0.00,Wunderground v.1.15,2013-11-10 11:58:00,
2013-11-10 07:03:00,44.5,35.0,30.31,SW,226,0.0,0.0,69,0.00,,,0.00,Wunderground v.1.15,2013-11-10 12:03:00,
2013-11-10 07:09:00,44.5,35.3,30.31,SW,226,0.0,0.0,70,0.00,,,0.00,Wunderground v.1.15,2013-11-10 12:09:00,
2013-11-10 07:14:00,44.3,35.1,30.31,SW,226,0.0,0.0,70,0.00,,,0.00,Wunderground v.1.15,2013-11-10 12:14:00,
2013-11-10 07:19:00,44.2,35.4,30.31,SW,226,0.0,0.0,71,0.00,,,0.00,Wunderground v.1.15,2013-11-10 12:19:00,
2013-11-10 07:25:00,44.2,35.4,30.31,SW,226,0.0,2.0,71,0.00,,,0.00,Wunderground v.1.15,2013-11-10 12:25:00,
2013-11-10 07:30:00,43.9,35.5,30.31,SW,226,1.0,2.0,72,0.00,,,0.00,Wunderground v.1.15,2013-11-10 12:30:00,
2013-11-10 07:36:00,44.1,35.6,30.31,SW,226,1.0,2.0,72,0.00,,,0.00,Wunderground v.1.15,2013-11-10 12:36:00,
2013-11-10 07:41:00,44.2,35.4,30.31,SW,226,0.0,0.0,71,0.00,,,0.00,Wunderground v.1.15,2013-11-10 12:41:00,
2013-11-10 07:47:00,44.6,35.8,30.31,SW,226,0.0,0.0,71,0.00,,,0.00,Wunderground v.1.15,2013-11-10 12:47:00,
2013-11-10 07:52:00,45.1,35.9,30.32,SW,226,0.0,0.0,70,0.00,,,0.00,Wunderground v.1.15,2013-11-10 12:52:00,
2013-11-10 07:57:00,45.7,36.8,30.32,SW,226,0.0,0.0,71,0.00,,,0.00,Wunderground v.1.15,2013-11-10 12:57:00,
2013-11-10 08:03:00,46.7,37.1,30.32,SW,226,0.0,0.0,69,0.00,,,0.00,Wunderground v.1.15,2013-11-10 13:03:00,
2013-11-10 08:08:00,48.3,37.8,30.32,SW,226,0.0,0.0,67,0.00,,,0.00,Wunderground v.1.15,2013-11-10 13:08:00,
2013-11-10 08:14:00,49.8,38.1,30.32,SW,226,0.0,0.0,64,0.00,,,0.00,Wunderground v.1.15,2013-11-10 13:14:00,
2013-11-10 08:19:00,50.2,38.1,30.32,SW,229,0.0,0.0,63,0.00,,,0.00,Wunderground v.1.15,2013-11-10 13:19:00,
2013-11-10 08:25:00,50.7,37.7,30.32,SW,229,0.0,0.0,61,0.00,,,0.00,Wunderground v.1.15,2013-11-10 13:25:00,
2013-11-10 08:30:00,51.0,38.8,30.32,SSW,210,0.0,0.0,63,0.00,,,0.00,Wunderground v.1.15,2013-11-10 13:30:00,
2013-11-10 08:36:00,51.6,37.7,30.32,SSE,148,0.0,0.0,59,0.00,,,0.00,Wunderground v.1.15,2013-11-10 13:36:00,
2013-11-10 08:41:00,51.4,38.0,30.33,SSW,207,0.0,0.0,60,0.00,,,0.00,Wunderground v.1.15,2013-11-10 13:41:00,
2013-11-10 08:47:00,51.4,37.5,30.33,SSW,210,1.0,3.0,59,0.00,,,0.00,Wunderground v.1.15,2013-11-10 13:47:00,
2013-11-10 08:52:00,51.6,38.6,30.33,SSW,210,1.0,1.0,61,0.00,,,0.00,Wunderground v.1.15,2013-11-10 13:52:00,
2013-11-10 08:57:00,51.9,38.4,30.33,SSW,210,0.0,1.0,60,0.00,,,0.00,Wunderground v.1.15,2013-11-10 13:57:00,
2013-11-10 09:03:00,53.3,38.9,30.33,SSW,210,0.0,0.0,58,0.00,,,0.00,Wunderground v.1.15,2013-11-10 14:03:00,
2013-11-10 09:08:00,53.6,38.7,30.33,SSW,210,0.0,2.0,57,0.00,,,0.00,Wunderground v.1.15,2013-11-10 14:08:00,
2013-11-10 09:13:00,53.3,38.9,30.33,SSW,210,1.0,3.0,58,0.00,,,0.00,Wunderground v.1.15,2013-11-10 14:13:00,
2013-11-10 09:19:00,53.1,39.1,30.33,SW,224,1.0,6.0,59,0.00,,,0.00,Wunderground v.1.15,2013-11-10 14:19:00,
2013-11-10 09:24:00,53.2,39.2,30.33,SW,224,1.0,1.0,59,0.00,,,0.00,Wunderground v.1.15,2013-11-10 14:24:00,
2013-11-10 09:29:00,53.3,39.8,30.33,SW,225,1.0,5.0,60,0.00,,,0.00,Wunderground v.1.15,2013-11-10 14:29:00,
2013-11-10 09:35:00,53.9,39.5,30.33,SW,225,1.0,2.0,58,0.00,,,0.00,Wunderground v.1.15,2013-11-10 14:35:00,
2013-11-10 09:41:00,54.4,40.4,30.33,SW,236,1.0,1.0,59,0.00,,,0.00,Wunderground v.1.15,2013-11-10 14:41:00,
2013-11-10 09:46:00,54.8,40.7,30.33,WSW,239,1.0,1.0,59,0.00,,,0.00,Wunderground v.1.15,2013-11-10 14:46:00,
2013-11-10 09:51:00,55.3,40.8,30.32,WSW,243,1.0,1.0,58,0.00,,,0.00,Wunderground v.1.15,2013-11-10 14:51:00,
2013-11-10 09:57:00,55.6,40.6,30.32,WSW,245,1.0,4.0,57,0.00,,,0.00,Wunderground v.1.15,2013-11-10 14:57:00,
2013-11-10 10:02:00,55.4,41.3,30.32,WSW,250,2.0,2.0,59,0.00,,,0.00,Wunderground v.1.15,2013-11-10 15:02:00,
2013-11-10 10:09:00,55.9,41.3,30.32,WSW,243,1.0,4.0,58,0.00,,,0.00,Wunderground v.1.15,2013-11-10 15:09:00,
2013-11-10 10:15:00,56.5,41.0,30.32,WSW,243,0.0,3.0,56,0.00,,,0.00,Wunderground v.1.15,2013-11-10 15:15:00,
2013-11-10 10:20:00,56.5,41.0,30.32,SW,216,1.0,1.0,56,0.00,,,0.00,Wunderground v.1.15,2013-11-10 15:20:00,
2013-11-10 10:26:00,56.7,41.2,30.32,SW,218,1.0,4.0,56,0.00,,,0.00,Wunderground v.1.15,2013-11-10 15:26:00,
2013-11-10 10:31:00,58.3,41.2,30.32,North,3,1.0,2.0,53,0.00,,,0.00,Wunderground v.1.15,2013-11-10 15:31:00,
2013-11-10 10:36:00,58.3,42.2,30.33,ENE,68,1.0,3.0,55,0.00,,,0.00,Wunderground v.1.15,2013-11-10 15:36:00,
2013-11-10 10:42:00,58.4,41.8,30.33,ENE,68,1.0,1.0,54,0.00,,,0.00,Wunderground v.1.15,2013-11-10 15:42:00,
2013-11-10 10:48:00,59.3,42.2,30.33,ENE,68,0.0,1.0,53,0.00,,,0.00,Wunderground v.1.15,2013-11-10 15:48:00,
2013-11-10 10:53:00,60.4,41.7,30.32,ENE,67,0.0,0.0,50,0.00,,,0.00,Wunderground v.1.15,2013-11-10 15:53:00,
2013-11-10 10:59:00,60.7,41.9,30.32,SSE,150,0.0,2.0,50,0.00,,,0.00,Wunderground v.1.15,2013-11-10 15:59:00,
2013-11-10 11:04:00,60.5,41.8,30.32,ESE,103,0.0,1.0,50,0.00,,,0.00,Wunderground v.1.15,2013-11-10 16:04:00,
2013-11-10 11:10:00,60.5,41.8,30.32,ENE,57,0.0,1.0,50,0.00,,,0.00,Wunderground v.1.15,2013-11-10 16:10:00,
2013-11-10 11:15:00,60.1,41.4,30.32,SSW,209,1.0,2.0,50,0.00,,,0.00,Wunderground v.1.15,2013-11-10 16:15:00,
2013-11-10 11:20:00,59.9,40.7,30.32,SSW,209,0.0,0.0,49,0.00,,,0.00,Wunderground v.1.15,2013-11-10 16:20:00,
2013-11-10 11:26:00,60.4,40.6,30.31,SW,226,0.0,1.0,48,0.00,,,0.00,Wunderground v.1.15,2013-11-10 16:26:00,
2013-11-10 11:31:00,60.7,39.2,30.31,NNE,13,1.0,1.0,45,0.00,,,0.00,Wunderground v.1.15,2013-11-10 16:31:00,
2013-11-10 11:37:00,61.0,38.9,30.31,NW,308,1.0,3.0,44,0.00,,,0.00,Wunderground v.1.15,2013-11-10 16:37:00,
2013-11-10 11:42:00,60.7,39.2,30.31,SE,146,1.0,1.0,45,0.00,,,0.00,Wunderground v.1.15,2013-11-10 16:42:00,
2013-11-10 11:47:00,61.2,39.7,30.31,South,181,1.0,1.0,45,0.00,,,0.00,Wunderground v.1.15,2013-11-10 16:47:00,
2013-11-10 11:53:00,61.6,39.5,30.30,South,181,0.0,0.0,44,0.00,,,0.00,Wunderground v.1.15,2013-11-10 16:53:00,
2013-11-10 11:58:00,61.6,38.3,30.30,SSW,213,0.0,1.0,42,0.00,,,0.00,Wunderground v.1.15,2013-11-10 16:58:00,
2013-11-10 12:04:00,61.8,38.4,30.30,SW,222,1.0,4.0,42,0.00,,,0.00,Wunderground v.1.15,2013-11-10 17:04:00,
2013-11-10 12:09:00,61.8,37.8,30.30,SW,223,0.0,4.0,41,0.00,,,0.00,Wunderground v.1.15,2013-11-10 17:09:00,
2013-11-10 12:14:00,62.3,37.7,30.30,SW,223,0.0,0.0,40,0.00,,,0.00,Wunderground v.1.15,2013-11-10 17:14:00,
2013-11-10 12:20:00,62.6,38.6,30.30,SW,224,0.0,0.0,41,0.00,,,0.00,Wunderground v.1.15,2013-11-10 17:20:00,
2013-11-10 12:25:00,63.4,36.7,30.28,WSW,240,0.0,1.0,37,0.00,,,0.00,Wunderground v.1.15,2013-11-10 17:25:00,
2013-11-10 12:31:00,63.7,36.9,30.28,WSW,240,0.0,0.0,37,0.00,,,0.00,Wunderground v.1.15,2013-11-10 17:31:00,
2013-11-10 12:36:00,63.9,35.7,30.28,WSW,254,0.0,1.0,35,0.00,,,0.00,Wunderground v.1.15,2013-11-10 17:36:00,
2013-11-10 12:41:00,64.0,37.2,30.28,WSW,254,1.0,1.0,37,0.00,,,0.00,Wunderground v.1.15,2013-11-10 17:41:00,
2013-11-10 12:47:00,63.9,37.1,30.28,WSW,254,1.0,3.0,37,0.00,,,0.00,Wunderground v.1.15,2013-11-10 17:47:00,
2013-11-10 12:53:00,63.7,36.2,30.27,WSW,254,0.0,1.0,36,0.00,,,0.00,Wunderground v.1.15,2013-11-10 17:53:00,
2013-11-10 12:59:00,63.4,37.3,30.27,WSW,255,0.0,5.0,38,0.00,,,0.00,Wunderground v.1.15,2013-11-10 17:59:00,
2013-11-10 13:05:00,63.7,36.2,30.27,WSW,253,1.0,3.0,36,0.00,,,0.00,Wunderground v.1.15,2013-11-10 18:05:00,
2013-11-10 13:10:00,63.4,35.2,30.26,WSW,254,1.0,3.0,35,0.00,,,0.00,Wunderground v.1.15,2013-11-10 18:10:00,
2013-11-10 13:15:00,63.2,35.8,30.26,WSW,251,2.0,5.0,36,0.00,,,0.00,Wunderground v.1.15,2013-11-10 18:15:00,
2013-11-10 13:21:00,63.2,35.1,30.26,West,260,3.0,4.0,35,0.00,,,0.00,Wunderground v.1.15,2013-11-10 18:21:00,
2013-11-10 13:26:00,62.9,34.1,30.26,WSW,243,4.0,7.0,34,0.00,,,0.00,Wunderground v.1.15,2013-11-10 18:26:00,
2013-11-10 13:32:00,62.9,34.1,30.26,WSW,251,4.0,6.0,34,0.00,,,0.00,Wunderground v.1.15,2013-11-10 18:32:00,
2013-11-10 13:37:00,63.2,34.3,30.26,WNW,283,2.0,6.0,34,0.00,,,0.00,Wunderground v.1.15,2013-11-10 18:37:00,
2013-11-10 13:42:00,63.4,35.2,30.26,WSW,250,2.0,3.0,35,0.00,,,0.00,Wunderground v.1.15,2013-11-10 18:42:00,
2013-11-10 13:48:00,63.5,35.3,30.26,WSW,249,2.0,6.0,35,0.00,,,0.00,Wunderground v.1.15,2013-11-10 18:48:00,
2013-11-10 13:53:00,63.9,33.4,30.26,WSW,256,1.0,4.0,32,0.00,,,0.00,Wunderground v.1.15,2013-11-10 18:53:00,
2013-11-10 13:59:00,63.9,33.4,30.26,West,275,2.0,7.0,32,0.00,,,0.00,Wunderground v.1.15,2013-11-10 18:59:00,
2013-11-10 14:04:00,63.7,33.3,30.26,WSW,255,2.0,6.0,32,0.00,,,0.00,Wunderground v.1.15,2013-11-10 19:04:00,
2013-11-10 14:10:00,64.0,33.5,30.25,North,358,1.0,1.0,32,0.00,,,0.00,Wunderground v.1.15,2013-11-10 19:10:00,
2013-11-10 14:15:00,64.2,32.1,30.25,West,271,1.0,4.0,30,0.00,,,0.00,Wunderground v.1.15,2013-11-10 19:15:00,
2013-11-10 14:21:00,64.3,33.0,30.25,WSW,248,2.0,4.0,31,0.00,,,0.00,Wunderground v.1.15,2013-11-10 19:21:00,
2013-11-10 14:26:00,64.3,33.0,30.25,West,272,2.0,9.0,31,0.00,,,0.00,Wunderground v.1.15,2013-11-10 19:26:00,
2013-11-10 14:31:00,64.2,33.7,30.25,West,262,3.0,5.0,32,0.00,,,0.00,Wunderground v.1.15,2013-11-10 19:31:00,
2013-11-10 14:37:00,64.3,34.6,30.25,West,262,2.0,5.0,33,0.00,,,0.00,Wunderground v.1.15,2013-11-10 19:37:00,
2013-11-10 14:42:00,64.8,35.0,30.25,SW,235,2.0,7.0,33,0.00,,,0.00,Wunderground v.1.15,2013-11-10 19:42:00,
2013-11-10 14:48:00,65.2,33.0,30.25,SW,236,2.0,7.0,30,0.00,,,0.00,Wunderground v.1.15,2013-11-10 19:48:00,
2013-11-10 14:53:00,65.3,32.2,30.24,SW,236,0.0,1.0,29,0.00,,,0.00,Wunderground v.1.15,2013-11-10 19:53:00,
2013-11-10 14:59:00,66.0,31.9,30.24,SW,236,0.0,6.0,28,0.00,,,0.00,Wunderground v.1.15,2013-11-10 19:59:00,
2013-11-10 15:04:00,66.1,32.0,30.24,WSW,241,1.0,3.0,28,0.00,,,0.00,Wunderground v.1.15,2013-11-10 20:04:00,
2013-11-10 15:10:00,65.3,31.3,30.25,WSW,246,2.0,2.0,28,0.00,,,0.00,Wunderground v.1.15,2013-11-10 20:10:00,
2013-11-10 15:15:00,64.8,30.9,30.25,WSW,238,3.0,3.0,28,0.00,,,0.00,Wunderground v.1.15,2013-11-10 20:15:00,
2013-11-10 15:20:00,64.5,30.6,30.25,West,262,3.0,3.0,28,0.00,,,0.00,Wunderground v.1.15,2013-11-10 20:20:00,
2013-11-10 15:26:00,64.2,30.4,30.25,West,259,3.0,5.0,28,0.00,,,0.00,Wunderground v.1.15,2013-11-10 20:26:00,
2013-11-10 15:31:00,63.9,30.1,30.25,West,271,2.0,2.0,28,0.00,,,0.00,Wunderground v.1.15,2013-11-10 20:31:00,
2013-11-10 15:37:00,63.7,30.0,30.25,West,270,1.0,4.0,28,0.00,,,0.00,Wunderground v.1.15,2013-11-10 20:37:00,
2013-11-10 15:42:00,63.4,29.7,30.25,WSW,245,1.0,2.0,28,0.00,,,0.00,Wunderground v.1.15,2013-11-10 20:42:00,
2013-11-10 15:48:00,63.1,29.4,30.25,West,266,2.0,6.0,28,0.00,,,0.00,Wunderground v.1.15,2013-11-10 20:48:00,
2013-11-10 15:53:00,62.6,29.0,30.26,WSW,254,3.0,9.0,28,0.00,,,0.00,Wunderground v.1.15,2013-11-10 20:53:00,
2013-11-10 15:59:00,62.6,29.9,30.26,WSW,255,2.0,9.0,29,0.00,,,0.00,Wunderground v.1.15,2013-11-10 20:59:00,
2013-11-10 16:04:00,62.4,29.7,30.26,WSW,254,1.0,6.0,29,0.00,,,0.00,Wunderground v.1.15,2013-11-10 21:04:00,
2013-11-10 16:09:00,62.4,29.7,30.26,WSW,254,0.0,6.0,29,0.00,,,0.00,Wunderground v.1.15,2013-11-10 21:09:00,
2013-11-10 16:15:00,62.7,30.0,30.26,WSW,254,0.0,0.0,29,0.00,,,0.00,Wunderground v.1.15,2013-11-10 21:15:00,
2013-11-10 16:20:00,62.7,29.1,30.26,WSW,254,0.0,2.0,28,0.00,,,0.00,Wunderground v.1.15,2013-11-10 21:20:00,
2013-11-10 16:26:00,62.1,28.6,30.26,WSW,255,1.0,3.0,28,0.00,,,0.00,Wunderground v.1.15,2013-11-10 21:26:00,
2013-11-10 16:31:00,61.6,29.0,30.26,WSW,257,1.0,4.0,29,0.00,,,0.00,Wunderground v.1.15,2013-11-10 21:31:00,
2013-11-10 16:36:00,61.3,30.4,30.26,WNW,288,1.0,4.0,31,0.00,,,0.00,Wunderground v.1.15,2013-11-10 21:36:00,
2013-11-10 16:42:00,61.0,30.1,30.26,WSW,241,1.0,6.0,31,0.00,,,0.00,Wunderground v.1.15,2013-11-10 21:42:00,
2013-11-10 16:47:00,60.7,31.4,30.26,WSW,245,1.0,6.0,33,0.00,,,0.00,Wunderground v.1.15,2013-11-10 21:47:00,
2013-11-10 16:53:00,60.4,31.9,30.26,WSW,245,1.0,2.0,34,0.00,,,0.00,Wunderground v.1.15,2013-11-10 21:53:00,
2013-11-10 16:58:00,60.1,31.6,30.26,WSW,245,0.0,2.0,34,0.00,,,0.00,Wunderground v.1.15,2013-11-10 21:58:00,
2013-11-10 17:03:00,59.9,32.2,30.26,WSW,245,0.0,0.0,35,0.00,,,0.00,Wunderground v.1.15,2013-11-10 22:03:00,
2013-11-10 17:09:00,59.6,31.9,30.27,WSW,244,0.0,2.0,35,0.00,,,0.00,Wunderground v.1.15,2013-11-10 22:09:00,
2013-11-10 17:14:00,59.3,31.6,30.27,WSW,244,0.0,2.0,35,0.00,,,0.00,Wunderground v.1.15,2013-11-10 22:14:00,
2013-11-10 17:20:00,59.0,31.4,30.27,WSW,243,1.0,1.0,35,0.00,,,0.00,Wunderground v.1.15,2013-11-10 22:20:00,
2013-11-10 17:25:00,58.7,31.8,30.27,WSW,243,0.0,1.0,36,0.00,,,0.00,Wunderground v.1.15,2013-11-10 22:25:00,
2013-11-10 17:31:00,58.4,31.5,30.27,WSW,243,0.0,0.0,36,0.00,,,0.00,Wunderground v.1.15,2013-11-10 22:31:00,
2013-11-10 17:36:00,58.0,32.5,30.28,WSW,243,0.0,0.0,38,0.00,,,0.00,Wunderground v.1.15,2013-11-10 22:36:00,
2013-11-10 17:42:00,57.5,32.7,30.28,WSW,243,0.0,0.0,39,0.00,,,0.00,Wunderground v.1.15,2013-11-10 22:42:00,
2013-11-10 17:47:00,57.0,32.3,30.28,WSW,243,0.0,0.0,39,0.00,,,0.00,Wunderground v.1.15,2013-11-10 22:47:00,
2013-11-10 17:52:00,56.6,32.5,30.29,WSW,243,0.0,0.0,40,0.00,,,0.00,Wunderground v.1.15,2013-11-10 22:52:00,
2013-11-10 17:57:00,56.2,32.8,30.29,WSW,243,0.0,0.0,41,0.00,,,0.00,Wunderground v.1.15,2013-11-10 22:57:00,
2013-11-10 18:03:00,56.0,33.2,30.29,WSW,243,0.0,0.0,42,0.00,,,0.00,Wunderground v.1.15,2013-11-10 23:03:00,
2013-11-10 18:09:00,55.7,33.5,30.29,WSW,243,0.0,0.0,43,0.00,,,0.00,Wunderground v.1.15,2013-11-10 23:09:00,
2013-11-10 18:14:00,55.4,33.3,30.29,WSW,243,0.0,0.0,43,0.00,,,0.00,Wunderground v.1.15,2013-11-10 23:14:00,
2013-11-10 18:20:00,55.0,32.9,30.29,WSW,243,0.0,3.0,43,0.00,,,0.00,Wunderground v.1.15,2013-11-10 23:20:00,
2013-11-10 18:25:00,54.8,33.3,30.29,WSW,243,0.0,3.0,44,0.00,,,0.00,Wunderground v.1.15,2013-11-10 23:25:00,
2013-11-10 18:30:00,54.7,33.2,30.29,WSW,243,0.0,0.0,44,0.00,,,0.00,Wunderground v.1.15,2013-11-10 23:30:00,
2013-11-10 18:36:00,54.4,33.5,30.29,WSW,243,0.0,0.0,45,0.00,,,0.00,Wunderground v.1.15,2013-11-10 23:36:00,
2013-11-10 18:41:00,54.1,33.2,30.29,WSW,243,0.0,2.0,45,0.00,,,0.00,Wunderground v.1.15,2013-11-10 23:41:00,
2013-11-10 18:46:00,53.8,33.5,30.29,WSW,243,0.0,2.0,46,0.00,,,0.00,Wunderground v.1.15,2013-11-10 23:46:00,
2013-11-10 18:52:00,53.6,33.3,30.29,WSW,243,0.0,0.0,46,0.00,,,0.00,Wunderground v.1.15,2013-11-10 23:52:00,
2013-11-10 18:58:00,53.5,33.2,30.29,WSW,243,0.0,0.0,46,0.00,,,0.00,Wunderground v.1.15,2013-11-10 23:58:00,
2013-11-10 19:03:00,53.3,33.0,30.29,WSW,243,0.0,2.0,46,0.00,,,0.00,Wunderground v.1.15,2013-11-11 00:03:00,
2013-11-10 19:08:00,53.2,33.5,30.30,WSW,243,0.0,2.0,47,0.00,,,0.00,Wunderground v.1.15,2013-11-11 00:08:00,
2013-11-10 19:14:00,52.9,33.2,30.30,WSW,243,1.0,1.0,47,0.00,,,0.00,Wunderground v.1.15,2013-11-11 00:14:00,
2013-11-10 19:19:00,52.8,32.6,30.30,WSW,243,1.0,4.0,46,0.00,,,0.00,Wunderground v.1.15,2013-11-11 00:19:00,
2013-11-10 19:25:00,52.5,32.8,30.30,WSW,243,1.0,2.0,47,0.00,,,0.00,Wunderground v.1.15,2013-11-11 00:25:00,
2013-11-10 19:30:00,52.3,32.1,30.30,WSW,243,0.0,0.0,46,0.00,,,0.00,Wunderground v.1.15,2013-11-11 00:30:00,
2013-11-10 19:35:00,52.3,31.6,30.30,WSW,243,0.0,0.0,45,0.00,,,0.00,Wunderground v.1.15,2013-11-11 00:35:00,
2013-11-10 19:41:00,52.3,31.6,30.30,WSW,243,0.0,0.0,45,0.00,,,0.00,Wunderground v.1.15,2013-11-11 00:41:00,
2013-11-10 19:46:00,52.5,31.2,30.30,WSW,243,0.0,3.0,44,0.00,,,0.00,Wunderground v.1.15,2013-11-11 00:46:00,
2013-11-10 19:52:00,52.5,31.2,30.28,WSW,243,0.0,0.0,44,0.00,,,0.00,Wunderground v.1.15,2013-11-11 00:52:00,
2013-11-10 19:57:00,52.3,30.4,30.28,WSW,243,0.0,1.0,43,0.00,,,0.00,Wunderground v.1.15,2013-11-11 00:57:00,
2013-11-10 20:02:00,52.5,30.6,30.28,WSW,243,0.0,0.0,43,0.00,,,0.00,Wunderground v.1.15,2013-11-11 01:02:00,
2013-11-10 20:08:00,52.2,30.4,30.28,WSW,243,0.0,0.0,43,0.00,,,0.00,Wunderground v.1.15,2013-11-11 01:08:00,
2013-11-10 20:13:00,52.0,30.7,30.28,WSW,243,0.0,0.0,44,0.00,,,0.00,Wunderground v.1.15,2013-11-11 01:13:00,
2013-11-10 20:19:00,51.7,31.0,30.28,WSW,243,0.0,2.0,45,0.00,,,0.00,Wunderground v.1.15,2013-11-11 01:19:00,
2013-11-10 20:24:00,51.3,30.7,30.28,WSW,244,1.0,4.0,45,0.00,,,0.00,Wunderground v.1.15,2013-11-11 01:24:00,
2013-11-10 20:30:00,51.4,29.6,30.28,SW,236,2.0,4.0,43,0.00,,,0.00,Wunderground v.1.15,2013-11-11 01:30:00,
2013-11-10 20:35:00,51.3,29.0,30.28,WSW,241,2.0,4.0,42,0.00,,,0.00,Wunderground v.1.15,2013-11-11 01:35:00,
2013-11-10 20:41:00,51.1,28.8,30.29,WSW,255,2.0,4.0,42,0.00,,,0.00,Wunderground v.1.15,2013-11-11 01:41:00,
2013-11-10 20:46:00,51.0,29.3,30.29,WSW,245,2.0,5.0,43,0.00,,,0.00,Wunderground v.1.15,2013-11-11 01:46:00,
2013-11-10 20:51:00,50.8,28.5,30.28,WSW,243,2.0,4.0,42,0.00,,,0.00,Wunderground v.1.15,2013-11-11 01:51:00,
2013-11-10 20:57:00,50.5,28.2,30.28,WSW,250,3.0,4.0,42,0.00,,,0.00,Wunderground v.1.15,2013-11-11 01:57:00,
2013-11-10 21:02:00,50.4,28.7,30.28,West,259,4.0,4.0,43,0.00,,,0.00,Wunderground v.1.15,2013-11-11 02:02:00,
2013-11-10 21:08:00,50.1,28.4,30.28,WSW,257,3.0,5.0,43,0.00,,,0.00,Wunderground v.1.15,2013-11-11 02:08:00,
2013-11-10 21:13:00,49.9,27.1,30.28,WSW,257,3.0,4.0,41,0.00,,,0.00,Wunderground v.1.15,2013-11-11 02:13:00,
2013-11-10 21:19:00,49.6,28.0,30.28,WSW,255,2.0,4.0,43,0.00,,,0.00,Wunderground v.1.15,2013-11-11 02:19:00,
2013-11-10 21:25:00,49.5,26.7,30.29,WSW,255,1.0,2.0,41,0.00,,,0.00,Wunderground v.1.15,2013-11-11 02:25:00,
2013-11-10 21:30:00,49.4,26.1,30.29,WSW,255,0.0,0.0,40,0.00,,,0.00,Wunderground v.1.15,2013-11-11 02:30:00,
2013-11-10 21:36:00,49.5,25.5,30.29,WSW,255,0.0,0.0,39,0.00,,,0.00,Wunderground v.1.15,2013-11-11 02:36:00,
2013-11-10 21:41:00,49.2,25.3,30.29,WSW,255,0.0,0.0,39,0.00,,,0.00,Wunderground v.1.15,2013-11-11 02:41:00,
2013-11-10 21:46:00,48.8,27.3,30.29,WSW,255,0.0,1.0,43,0.00,,,0.00,Wunderground v.1.15,2013-11-11 02:46:00,
2013-11-10 21:52:00,48.2,26.7,30.29,WSW,255,0.0,0.0,43,0.00,,,0.00,Wunderground v.1.15,2013-11-11 02:52:00,
2013-11-10 21:57:00,48.2,26.2,30.29,WSW,255,0.0,0.0,42,0.00,,,0.00,Wunderground v.1.15,2013-11-11 02:57:00,
2013-11-10 22:03:00,48.2,25.6,30.29,WSW,255,0.0,0.0,41,0.00,,,0.00,Wunderground v.1.15,2013-11-11 03:03:00,
2013-11-10 22:08:00,48.3,24.5,30.29,WSW,255,0.0,0.0,39,0.00,,,0.00,Wunderground v.1.15,2013-11-11 03:08:00,
2013-11-10 22:14:00,48.0,24.8,30.29,WSW,255,0.0,1.0,40,0.00,,,0.00,Wunderground v.1.15,2013-11-11 03:14:00,
2013-11-10 22:20:00,47.9,25.9,30.29,WSW,255,0.0,0.0,42,0.00,,,0.00,Wunderground v.1.15,2013-11-11 03:20:00,
2013-11-10 22:26:00,47.6,25.6,30.28,WSW,255,0.0,0.0,42,0.00,,,0.00,Wunderground v.1.15,2013-11-11 03:26:00,
2013-11-10 22:32:00,47.6,24.4,30.28,WSW,255,0.0,0.0,40,0.00,,,0.00,Wunderground v.1.15,2013-11-11 03:32:00,
2013-11-10 22:37:00,47.6,24.4,30.28,WSW,255,0.0,2.0,40,0.00,,,0.00,Wunderground v.1.15,2013-11-11 03:37:00,
2013-11-10 22:43:00,47.6,23.8,30.28,WSW,255,0.0,0.0,39,0.00,,,0.00,Wunderground v.1.15,2013-11-11 03:43:00,
2013-11-10 22:48:00,47.4,24.9,30.28,WSW,255,0.0,0.0,41,0.00,,,0.00,Wunderground v.1.15,2013-11-11 03:48:00,
2013-11-10 22:53:00,47.1,24.0,30.28,WSW,255,0.0,0.0,40,0.00,,,0.00,Wunderground v.1.15,2013-11-11 03:53:00,
2013-11-10 22:59:00,47.0,24.5,30.28,WSW,255,0.0,0.0,41,0.00,,,0.00,Wunderground v.1.15,2013-11-11 03:59:00,
2013-11-10 23:04:00,46.7,25.4,30.28,WSW,255,0.0,0.0,43,0.00,,,0.00,Wunderground v.1.15,2013-11-11 04:04:00,
2013-11-10 23:09:00,46.4,24.5,30.29,WSW,255,0.0,0.0,42,0.00,,,0.00,Wunderground v.1.15,2013-11-11 04:09:00,
2013-11-10 23:15:00,46.2,23.8,30.29,WSW,255,0.0,0.0,41,0.00,,,0.00,Wunderground v.1.15,2013-11-11 04:15:00,
2013-11-10 23:20:00,46.2,23.8,30.29,WSW,255,0.0,0.0,41,0.00,,,0.00,Wunderground v.1.15,2013-11-11 04:20:00,
2013-11-10 23:26:00,46.1,24.8,30.29,WSW,255,0.0,0.0,43,0.00,,,0.00,Wunderground v.1.15,2013-11-11 04:26:00,
2013-11-10 23:31:00,45.7,24.5,30.29,WSW,255,0.0,0.0,43,0.00,,,0.00,Wunderground v.1.15,2013-11-11 04:31:00,
2013-11-10 23:37:00,45.4,25.3,30.29,WSW,255,0.0,0.0,45,0.00,,,0.00,Wunderground v.1.15,2013-11-11 04:37:00,
2013-11-10 23:42:00,45.2,25.6,30.29,WSW,255,0.0,0.0,46,0.00,,,0.00,Wunderground v.1.15,2013-11-11 04:42:00,
2013-11-10 23:48:00,44.8,25.3,30.29,WSW,255,0.0,0.0,46,0.00,,,0.00,Wunderground v.1.15,2013-11-11 04:48:00,
2013-11-10 23:53:00,44.6,24.5,30.29,WSW,255,0.0,0.0,45,0.00,,,0.00,Wunderground v.1.15,2013-11-11 04:53:00,
2013-11-10 23:59:00,44.5,23.9,30.29,WSW,255,0.0,0.0,44,0.00,,,0.00,Wunderground v.1.15,2013-11-11 04:59:00,